Theta_e
326 325 325 324 324 325 324 325 325 325 324 324 322 321 318 316 313 310 308 311 313 317 319 313 315 318 316 314 315 314 313 313 312 309 307 306 306 309 309 308 309 307 305 304 305 306 307 309 311 313 316 315 313 312 312 312 311 313 312 312 312 310 310 310 309 312 310 310 310 310 310 309 309 309
327 326 325 323 324 324 325 324 324 326 323 323 323 321 318 317 315 311 310 310 313 315 316 315 313 314 314 314 314 313 312 313 312 308 306 305 305 307 307 307 307 306 305 304 305 307 308 310 312 315 315 314 312 312 312 312 312 313 314 312 310 311 311 312 314 313 312 311 310 309 309 309 308 308
327 326 325 323 323 323 324 324 325 325 322 320 322 320 319 317 315 313 312 310 311 316 312 313 315 314 314 315 314 314 313 314 311 307 304 304 307 308 306 306 306 306 306 305 306 311 312 311 312 313 314 314 313 313 314 314 315 313 311 310 311 310 309 309 312 313 311 311 310 309 308 307 308 308
326 325 324 325 324 324 324 324 324 321 322 321 319 318 318 317 316 315 313 310 311 313 312 313 313 313 312 313 311 311 313 313 311 306 304 305 308 304 304 306 306 306 306 306 309 314 314 313 313 313 314 315 314 315 315 315 313 310 309 309 310 309 308 309 311 309 309 309 309 308 306 307 308 308
325 324 324 324 325 325 323 322 322 321 320 319 319 317 317 316 316 313 310 309 309 309 312 312 311 312 311 308 309 309 309 308 307 307 303 304 302 302 302 303 305 305 305 305 307 308 309 312 315 311 309 312 310 307 308 308 308 309 308 306 306 307 308 308 308 309 309 308 306 305 306 306 306 307
324 322 322 326 325 325 324 322 322 320 319 319 317 316 317 316 316 315 311 307 307 306 308 308 310 309 309 304 306 307 306 305 304 303 302 303 302 302 301 301 303 304 305 304 305 306 307 307 308 306 305 305 305 306 306 306 306 306 304 304 306 307 307 308 307 308 308 306 304 303 304 304 304 305
322 322 322 322 323 325 321 321 320 318 317 315 312 314 314 313 314 314 312 309 306 306 305 306 306 306 305 304 305 307 308 307 304 302 301 302 304 304 302 301 303 303 303 303 305 305 305 305 305 304 304 304 303 303 304 304 303 302 302 303 306 304 304 304 303 305 307 305 303 302 302 303 304 304
323 322 321 321 323 321 319 319 317 315 316 315 312 314 314 314 313 312 310 310 308 306 306 305 306 305 304 304 307 309 309 305 303 302 302 303 304 304 304 302 302 303 303 303 304 304 304 305 304 303 303 303 303 302 303 302 302 301 301 301 301 300 299 299 299 300 303 304 303 302 301 302 303 304
321 322 321 322 320 318 317 318 316 316 315 316 314 313 313 313 315 316 313 310 309 307 305 305 305 306 305 306 307 309 306 304 303 302 301 302 304 304 304 304 304 303 303 304 304 304 303 304 303 303 303 302 302 302 302 301 301 301 301 300 300 299 298 298 298 298 298 298 301 301 300 299 301 303
320 320 319 319 319 318 317 316 316 316 315 317 316 315 314 314 314 313 312 311 308 306 305 305 305 303 304 304 306 308 307 304 302 301 302 302 304 304 303 304 306 305 303 303 303 302 302 303 303 302 303 302 301 301 301 301 301 301 300 300 299 299 298 298 298 298 297 297 296 296 298 298 300 302
320 319 319 318 319 318 317 317 316 318 318 318 317 318 317 315 312 313 312 312 309 307 306 305 305 303 304 305 304 307 308 306 304 302 300 300 302 303 304 304 305 305 303 303 303 302 302 303 302 302 303 303 302 302 301 301 301 300 299 298 298 298 299 299 298 298 297 297 296 295 295 296 298 300
317 318 317 316 316 316 315 315 315 318 317 318 317 317 318 317 316 315 314 312 310 309 308 304 304 303 303 303 306 307 306 304 303 303 302 299 300 301 303 305 304 303 303 301 301 302 303 302 302 302 302 302 301 301 301 302 302 300 298 298 298 298 299 299 298 298 298 298 297 296 295 295 295 297
319 318 317 315 315 318 316 311 312 314 317 317 314 313 315 315 315 314 314 314 310 309 310 310 311 309 304 304 305 304 303 304 304 304 303 301 302 302 302 304 305 304 301 301 301 300 301 300 300 300 300 300 301 301 301 301 302 300 298 298 298 298 298 298 299 299 299 298 297 296 296 295 295 295
320 320 319 320 320 316 314 308 301 301 304 311 314 312 312 312 313 312 311 311 311 312 309 308 308 307 306 306 307 306 307 307 306 305 303 301 302 302 303 303 302 303 302 300 299 301 302 301 300 300 299 300 302 299 300 299 300 299 298 298 298 298 298 298 299 298 298 297 297 296 296 295 295 294
317 319 321 320 322 321 320 314 302 299 298 298 301 304 309 314 312 310 309 309 308 309 311 311 308 307 306 309 312 311 310 311 308 305 305 305 304 303 302 301 303 304 302 300 300 301 302 302 299 300 300 300 300 299 299 299 300 299 298 298 298 298 298 298 298 297 297 297 296 296 296 295 296 295
318 319 319 319 319 319 321 320 317 313 306 302 300 298 299 300 301 305 310 308 308 308 308 309 308 307 307 307 310 309 309 309 310 310 309 308 305 306 305 305 304 306 304 301 300 301 303 303 301 300 301 301 301 300 299 299 299 298 298 298 298 298 298 298 298 297 297 296 296 295 295 295 295 294
319 318 317 318 318 323 323 321 319 318 317 309 304 301 300 298 297 296 297 304 309 309 307 307 306 307 307 307 310 310 308 309 309 308 310 309 309 308 308 307 307 310 306 304 303 302 304 304 301 301 303 304 302 301 299 299 298 298 298 298 297 297 297 297 297 296 296 295 295 295 295 294 293 293
318 317 316 316 317 318 319 319 318 317 317 315 314 315 315 313 311 297 293 295 299 304 309 308 308 308 309 309 306 309 308 309 308 307 308 309 308 308 309 310 310 313 309 306 306 306 306 304 302 301 307 308 304 302 300 299 298 298 297 297 297 297 297 297 296 296 296 295 295 294 294 294 293 293
318 318 317 315 316 317 317 315 314 316 315 315 315 316 316 317 316 315 309 305 304 303 306 309 310 309 309 311 311 311 311 313 313 313 311 311 309 308 309 308 308 310 312 310 309 305 307 307 307 307 309 307 304 303 300 298 298 297 297 297 297 297 296 296 296 296 296 296 295 295 294 294 293 293
317 317 316 315 314 314 315 300 295 299 309 316 316 314 314 315 313 306 296 293 294 303 308 308 308 306 305 303 306 306 307 309 312 312 311 311 310 307 305 306 303 304 307 310 309 305 305 308 307 306 308 306 303 304 302 298 299 298 297 297 297 296 296 296 296 296 295 295 295 295 294 294 293 293
317 317 317 316 314 313 305 294 292 292 301 315 315 315 315 314 311 309 301 295 293 293 296 298 298 298 296 294 294 296 297 303 310 310 308 307 306 305 304 303 303 303 303 306 308 305 303 305 304 303 305 303 301 300 299 299 298 298 297 297 296 296 296 296 296 296 295 295 295 295 294 294 293 294
309 306 310 310 309 305 301 292 292 293 307 314 314 314 312 312 310 309 306 305 301 294 293 293 293 293 294 294 297 297 300 304 308 311 307 304 305 304 303 304 303 302 305 305 308 304 303 303 303 303 304 302 301 300 299 298 298 297 296 296 296 296 296 296 296 296 295 295 295 295 294 294 294 292
305 301 300 299 297 298 293 290 291 293 303 310 310 310 310 309 307 307 307 306 304 302 302 301 301 301 300 302 304 303 301 304 308 309 309 306 306 304 303 301 301 300 300 300 304 304 301 302 303 302 300 298 301 299 297 296 296 296 295 295 295 295 295 296 295 295 295 295 295 295 294 294 293 292
305 302 300 298 291 291 291 290 289 290 293 305 307 307 307 304 303 303 303 306 304 302 302 302 302 304 305 307 306 306 306 305 304 302 304 307 309 306 304 303 301 300 299 299 300 303 301 302 301 302 301 296 292 296 296 294 295 295 295 294 293 295 295 295 295 295 295 295 294 294 294 294 294 291
303 300 299 298 293 291 291 290 290 290 290 291 304 306 305 302 299 297 304 305 302 306 306 306 305 306 305 306 306 306 305 302 300 300 300 301 303 305 306 304 301 296 296 298 296 303 299 298 296 297 296 295 295 295 296 296 296 295 295 294 294 295 295 294 294 293 294 294 294 294 294 294 294 293
302 301 299 298 294 290 291 291 290 290 290 290 301 297 291 292 293 301 302 304 305 306 307 307 306 306 305 306 307 305 303 299 299 298 298 298 299 299 303 306 300 294 294 296 296 299 296 296 296 295 295 293 294 293 293 295 298 298 297 296 296 296 296 295 294 292 292 293 293 293 293 294 294 294
299 299 299 299 294 290 291 291 291 290 290 296 295 289 290 291 290 293 301 301 304 305 306 306 306 304 304 305 304 301 297 297 298 297 297 298 298 298 298 298 298 296 296 297 300 299 297 295 297 295 294 294 293 292 293 293 295 297 296 296 297 297 297 295 293 292 292 291 291 293 293 292 292 293
299 298 297 295 290 291 291 291 291 290 291 293 291 289 290 290 292 297 299 301 304 301 302 304 305 305 301 300 301 299 297 296 295 296 296 297 297 297 298 298 298 298 298 299 299 299 299 297 296 297 296 294 292 292 291 294 294 294 294 295 295 296 295 294 293 293 292 291 291 290 290 290 292 291
295 292 291 290 290 290 291 291 294 293 292 291 289 289 287 295 296 299 299 300 301 300 298 300 301 296 295 295 296 298 297 296 296 295 295 295 295 296 297 297 297 297 298 299 299 299 299 298 297 297 296 295 294 294 294 294 294 293 293 292 293 294 295 294 293 292 292 291 291 291 291 290 290 291
291 291 291 292 292 293 293 291 292 292 294 291 290 287 289 293 295 297 297 298 297 297 297 297 297 296 295 293 294 295 296 295 294 292 292 293 294 295 295 294 295 295 296 296 297 298 298 297 296 296 295 296 295 294 294 293 292 293 292 292 293 293 293 293 292 292 292 291 292 292 293 292 293 292
290 291 292 292 292 292 290 289 290 289 291 293 293 292 292 292 293 295 296 295 295 295 295 295 296 295 295 295 294 293 293 292 292 293 293 293 292 293 293 293 292 292 294 294 295 295 294 296 297 297 294 294 294 294 294 293 291 292 292 293 293 289 292 293 293 292 292 292 292 292 292 292 290 292
289 290 291 292 293 293 294 294 294 293 294 292 291 293 293 292 292 296 298 295 293 292 291 289 289 289 291 292 292 292 292 292 292 292 292 291 291 290 289 286 289 292 292 293 294 295 294 296 297 296 296 295 293 293 293 292 292 292 292 292 292 293 293 292 292 292 293 291 291 290 290 290 291 291
289 290 291 291 292 291 290 290 291 291 292 290 291 293 295 294 295 295 295 294 293 291 291 290 291 291 292 292 292 292 292 292 292 292 291 291 291 292 291 290 290 291 291 293 294 294 294 294 293 295 295 295 293 290 289 286 289 291 291 291 291 291 291 293 292 292 292 289 289 289 288 289 291 291
288 288 289 289 289 290 290 289 289 289 289 289 289 290 290 292 294 291 291 292 291 288 291 290 289 290 290 291 291 291 290 290 291 290 291 291 291 288 288 288 289 290 289 290 290 292 294 294 293 292 292 290 292 292 291 290 289 291 291 291 290 290 291 292 292 292 290 291 289 287 286 286 289 291
289 289 289 288 288 289 289 288 288 288 288 288 288 288 287 288 289 290 289 288 287 287 288 286 286 287 288 289 289 288 288 288 289 289 290 291 291 290 289 288 288 288 288 287 288 290 290 291 292 290 288 289 290 290 295 294 292 291 292 291 291 292 291 292 291 291 291 289 288 286 285 286 288 290
288 288 288 287 287 287 288 287 287 289 289 288 288 288 288 288 288 289 289 287 286 285 285 286 286 286 286 286 287 287 286 287 287 288 287 287 287 287 288 287 287 288 288 287 287 289 290 290 290 287 285 285 286 285 286 293 294 292 289 288 291 291 291 291 290 289 287 286 286 287 285 285 287 290
287 287 288 288 288 288 287 287 287 288 289 288 287 287 286 287 287 288 288 285 286 284 284 284 284 284 284 284 285 286 286 287 287 287 287 287 287 287 286 286 286 286 287 288 289 290 290 289 290 288 287 285 285 284 284 284 290 293 291 288 287 287 288 287 286 286 285 287 287 287 286 285 286 287
287 287 288 288 288 288 287 287 286 286 287 286 287 287 286 286 287 287 287 286 285 285 286 286 284 283 283 284 286 286 287 286 286 286 286 286 286 286 286 285 286 287 288 288 289 290 291 290 289 288 287 285 285 284 284 285 283 286 291 290 286 285 286 287 286 286 287 288 287 288 287 285 285 286
289 287 287 287 287 288 287 287 286 287 287 286 286 285 286 286 285 285 285 284 285 286 287 287 286 285 285 285 286 286 287 286 286 286 286 286 286 286 286 286 286 287 286 286 288 288 289 288 288 287 287 286 285 286 285 284 284 285 287 290 289 286 286 288 288 287 287 286 286 285 282 284 288 288
287 288 287 287 287 288 287 288 287 287 286 286 286 286 286 285 284 284 284 284 285 286 286 286 286 286 285 286 286 287 287 286 286 286 286 286 286 286 286 285 286 285 286 285 285 285 286 286 288 287 287 288 287 287 286 286 284 281 284 287 290 290 288 288 288 287 286 285 286 282 282 282 283 283
287 287 287 286 286 286 286 286 286 286 286 286 287 288 287 286 285 286 286 286 286 287 286 286 286 286 286 287 286 286 286 286 285 285 286 285 286 286 286 285 285 285 284 284 284 284 285 287 288 288 289 287 285 283 282 281 282 284 285 287 289 290 291 292 291 288 287 286 287 284 281 281 281 280
287 286 286 286 287 287 286 286 286 286 285 285 285 286 286 285 286 287 286 286 286 286 286 286 286 287 287 287 287 286 286 285 285 285 285 285 286 286 286 285 284 285 284 284 284 283 284 288 288 288 286 283 282 283 281 280 281 283 285 286 287 288 290 290 290 290 291 289 287 286 285 285 285 285
286 286 287 288 288 288 288 288 287 286 284 284 285 285 286 287 287 286 286 286 285 285 285 285 286 286 287 287 287 287 286 286 286 286 286 286 285 285 285 285 284 284 284 285 284 284 286 286 286 285 285 284 284 284 282 282 283 284 285 286 286 286 287 289 290 290 290 290 290 289 288 286 285 284
285 286 286 287 286 287 287 286 286 285 284 284 285 286 286 287 287 287 286 286 286 286 286 286 287 287 287 286 286 286 286 286 286 286 285 285 285 285 285 285 285 285 284 284 284 284 283 284 284 285 284 283 284 284 283 284 285 285 285 285 285 285 286 287 287 287 287 287 288 289 290 290 289 289
284 285 285 284 284 284 284 284 284 284 284 283 284 285 286 287 286 286 286 286 286 286 286 286 286 287 287 286 286 285 286 287 286 286 286 285 285 285 284 283 283 282 282 282 283 283 283 282 282 282 283 283 284 285 285 286 286 285 285 285 286 286 286 287 288 288 287 288 288 288 288 288 288 288
Wind_Speed
4 4 4 4 4 3 3 3 3 4 4 5 7 7 8 7 10 7 5 5 6 6 5 5 2 5 6 6 5 6 5 6 6 4 5 5 4 9 12 12 12 12 12 12 12 12 11 11 10 9 8 8 8 7 6 6 5 5 6 6 6 6 6 6 6 6 7 7 7 6 6 6 6 6
4 4 3 3 4 3 4 5 4 4 6 5 5 6 6 7 9 6 8 6 4 6 4 2 5 4 6 6 5 5 5 7 8 5 5 4 4 10 12 12 12 12 12 12 11 11 10 10 9 9 8 8 7 6 5 5 4 5 6 5 5 5 5 3 4 6 6 7 6 5 6 6 6 6
4 4 4 3 3 3 4 3 3 5 5 6 7 6 7 7 7 7 7 7 4 4 6 3 4 8 7 7 6 5 5 6 7 5 4 3 6 9 9 12 12 12 12 11 11 10 9 9 8 8 7 7 6 5 5 4 4 6 6 4 4 5 5 3 3 5 5 5 5 6 6 6 6 6
4 4 4 4 4 3 3 2 2 5 5 5 6 5 6 7 8 9 7 7 8 5 6 7 7 9 9 7 8 6 5 5 9 4 4 4 7 5 5 9 11 11 11 11 10 10 9 8 8 7 7 6 6 5 4 4 5 6 6 5 5 5 5 5 4 5 6 6 6 7 6 6 7 8
4 4 4 3 4 4 4 2 1 2 2 4 4 5 5 6 7 8 6 7 5 2 5 7 8 8 8 7 7 8 6 5 4 5 4 4 4 4 5 5 8 10 10 9 9 9 9 8 8 7 7 6 6 6 6 6 6 6 6 7 7 6 6 5 6 7 8 8 8 7 6 7 7 7
4 4 4 3 2 4 4 4 3 3 2 3 3 5 5 6 6 6 5 5 6 7 4 5 5 8 7 7 7 9 8 6 5 6 4 3 3 5 5 5 5 8 9 9 9 9 9 8 8 8 7 8 8 8 8 7 7 7 7 8 7 7 8 7 6 7 9 8 8 7 7 7 6 6
4 4 4 3 3 3 4 2 1 0 1 1 3 4 3 4 4 4 8 7 6 10 6 6 8 7 6 7 9 8 8 8 8 7 6 6 5 4 5 5 5 9 10 11 10 10 9 9 9 9 8 8 8 8 8 8 8 8 8 8 8 8 8 7 7 7 7 7 7 7 7 5 5 5
5 4 4 4 3 3 3 1 2 1 1 3 4 8 4 4 3 5 5 8 9 6 8 5 8 7 8 4 7 7 7 9 8 7 7 5 6 6 6 6 6 9 13 12 11 11 10 10 9 10 10 9 9 9 8 8 9 9 9 10 10 10 9 8 8 7 6 6 6 6 5 5 4 5
5 5 4 3 3 4 3 1 1 2 3 3 3 6 6 6 5 5 5 4 6 8 9 7 5 7 6 7 7 8 9 6 5 4 8 8 7 6 6 6 6 8 13 11 10 10 10 10 10 10 11 11 10 10 10 10 10 10 11 11 11 10 9 9 8 7 7 6 5 4 4 2 4 5
4 4 4 4 4 3 2 0 3 3 4 5 5 4 3 5 5 5 4 5 4 6 7 8 5 5 7 5 6 9 9 10 7 5 6 5 6 6 6 7 6 5 6 5 6 8 9 10 11 11 11 13 13 12 12 11 11 11 11 11 10 10 9 9 8 8 6 5 3 1 0 2 4 6
4 4 4 3 4 3 3 4 4 5 5 6 5 5 4 3 4 5 4 5 6 5 5 2 4 7 4 9 8 8 9 10 10 11 7 6 7 6 8 8 7 5 6 9 11 10 11 12 11 11 12 12 12 12 12 12 11 11 11 11 11 10 9 8 8 7 5 5 5 5 4 2 3 6
7 6 6 5 4 5 4 5 4 5 5 5 6 4 5 6 7 5 5 4 4 4 4 4 4 6 7 4 4 6 6 6 4 5 8 11 9 9 7 9 9 6 7 8 7 7 6 6 7 7 9 10 11 12 11 11 11 12 12 11 11 10 9 8 7 6 6 6 6 5 3 1 2 4
8 7 7 6 6 7 9 10 7 6 4 5 6 3 5 5 5 4 5 5 4 4 5 4 3 2 4 3 6 7 7 10 12 11 8 9 10 10 8 8 9 8 9 8 7 8 9 7 7 6 6 7 9 9 10 8 12 14 13 13 12 11 10 9 8 8 8 7 5 3 2 3 3 3
9 8 7 7 12 11 11 10 10 10 10 8 5 4 5 4 4 4 4 4 4 5 4 2 2 4 3 1 2 4 4 3 2 3 8 8 9 5 9 6 5 6 7 7 9 10 8 9 7 6 8 6 7 7 7 8 9 12 14 13 12 12 11 10 10 10 8 6 5 4 3 4 4 5
6 5 5 5 7 7 6 7 10 10 13 13 7 7 6 4 4 4 5 3 3 1 1 1 1 3 2 3 2 4 5 3 5 7 6 8 6 8 8 9 4 5 9 9 9 10 8 9 10 9 9 8 8 8 10 13 15 15 15 14 13 12 11 11 11 10 8 7 6 6 5 4 4 5
7 7 7 5 4 2 3 3 4 5 7 8 8 10 5 4 3 3 3 3 1 1 1 0 1 2 4 4 6 4 2 4 5 4 3 5 6 7 9 8 8 6 12 10 9 11 5 8 10 8 10 9 9 11 13 16 16 16 15 14 13 13 12 12 11 10 9 8 8 6 4 3 4 5
7 6 5 3 2 1 5 3 3 3 2 4 5 4 10 6 2 1 1 1 1 4 2 2 3 2 2 3 5 5 3 2 3 3 5 5 5 3 6 8 6 0 9 7 6 8 5 7 9 10 4 4 6 7 11 16 17 16 16 15 14 13 12 12 11 11 11 10 8 7 5 3 3 5
6 4 4 3 2 1 2 4 3 0 1 4 3 2 3 6 9 5 4 2 1 2 3 4 4 4 2 2 2 4 2 2 3 3 6 4 4 6 8 5 5 4 11 12 8 6 4 6 3 1 3 1 4 5 10 17 16 15 14 14 14 13 13 12 13 13 13 11 9 7 3 1 4 6
5 4 3 3 2 1 2 3 1 1 3 2 1 0 3 5 5 1 2 2 3 3 3 4 5 4 3 3 4 3 3 5 5 6 4 5 4 3 1 5 4 4 2 3 4 6 1 1 5 4 2 4 5 2 4 12 15 15 14 13 14 14 14 14 15 15 14 11 8 5 2 1 4 6
2 3 3 2 0 2 6 7 8 5 1 1 3 2 3 6 4 1 2 3 3 1 2 3 3 3 2 3 3 3 3 3 1 2 4 4 5 4 1 2 3 1 1 3 6 3 2 1 6 2 1 2 1 1 2 9 13 15 15 15 15 15 16 16 17 16 12 9 7 5 4 4 4 5
4 3 1 1 1 6 6 7 8 7 4 1 3 2 5 5 2 2 1 2 3 4 1 1 2 3 4 5 5 4 3 2 3 4 4 4 3 3 4 3 2 2 3 0 4 5 3 1 2 2 1 2 2 2 3 5 11 15 16 17 17 17 17 18 17 14 10 9 8 7 6 5 5 3
7 10 16 11 8 7 5 8 9 8 3 3 3 2 1 4 5 4 0 0 1 3 2 2 2 4 5 6 5 2 2 2 3 6 7 4 4 5 5 6 5 3 2 2 1 3 3 3 2 3 2 1 1 5 5 6 8 12 12 16 17 17 18 18 14 13 10 10 10 8 7 7 5 0
6 6 7 10 7 6 4 6 7 9 6 5 4 3 2 3 3 4 4 2 1 1 0 1 0 2 4 4 3 2 1 3 3 4 5 5 7 6 5 4 1 2 2 2 3 4 1 4 3 3 3 2 1 0 3 6 5 6 6 8 10 14 15 15 13 13 9 10 10 9 8 8 5 1
6 6 6 7 9 9 8 8 9 8 9 5 3 2 2 3 3 5 7 6 3 3 3 3 3 4 4 3 3 2 1 3 3 2 1 2 4 5 5 5 5 4 2 2 1 3 2 4 4 4 4 4 2 1 3 3 5 6 7 6 6 11 13 11 8 8 6 8 9 9 9 9 7 2
5 5 5 5 8 10 9 8 8 7 7 5 3 5 4 2 4 5 5 8 10 5 4 4 4 4 3 4 3 1 3 3 2 3 3 3 4 6 5 5 4 2 1 4 3 2 1 1 1 1 2 2 2 3 1 3 4 5 6 7 8 8 6 6 5 3 6 8 9 9 8 9 8 5
5 4 4 4 6 9 9 8 7 6 4 3 3 3 1 3 4 4 4 4 4 5 6 6 4 3 3 3 4 1 3 3 2 3 3 3 3 1 5 8 8 4 2 2 3 4 4 4 2 2 2 3 3 2 4 3 3 5 5 5 4 4 3 5 3 3 5 5 4 5 7 9 9 8
2 1 1 2 6 8 8 8 8 6 4 3 2 2 4 5 6 4 3 3 4 4 5 5 5 3 2 3 3 1 3 2 2 3 3 3 4 5 5 5 5 7 5 2 4 5 5 3 2 4 3 2 3 2 3 3 1 1 3 3 3 4 2 3 3 2 1 1 2 3 5 6 8 9
4 4 4 4 6 5 5 7 7 4 5 3 2 3 4 6 4 2 3 4 5 4 5 6 6 6 3 2 1 1 1 3 3 4 4 5 4 6 6 7 7 6 6 5 5 6 8 7 4 4 6 5 4 3 2 2 2 2 2 2 1 4 3 5 5 4 3 2 1 1 1 2 4 5
5 6 8 9 9 8 7 7 3 2 2 1 3 4 5 4 3 5 4 5 6 7 6 5 5 5 5 4 2 4 5 3 5 3 6 7 8 8 7 7 7 7 5 5 6 6 5 6 6 6 7 5 5 1 2 1 0 2 3 3 3 3 3 3 4 5 4 4 5 5 6 5 3 3
11 12 11 11 9 6 4 3 3 4 5 7 5 3 2 3 4 3 4 5 6 6 5 5 5 4 4 3 4 5 5 6 5 3 4 6 7 6 7 8 8 6 7 6 5 5 5 5 5 6 6 5 5 3 2 2 1 0 1 2 1 1 2 4 4 3 4 4 3 2 3 2 1 1
8 10 9 8 10 8 7 5 4 4 5 5 6 6 4 3 3 1 1 2 3 3 4 3 4 3 4 4 6 5 6 6 5 4 5 6 5 5 5 5 4 5 5 4 5 4 2 3 3 4 5 2 2 3 3 3 2 0 1 1 4 1 2 1 1 3 4 3 2 0 0 2 2 1
6 6 8 9 8 8 8 8 7 7 6 5 5 6 5 4 4 3 4 5 3 3 4 3 3 4 5 4 4 5 6 5 4 4 5 4 4 2 2 3 1 0 1 2 1 1 3 3 4 2 4 3 2 1 1 1 1 0 2 1 0 1 1 2 3 4 3 2 2 0 2 2 1 3
4 5 8 10 10 10 9 10 10 10 10 9 9 8 7 6 6 4 1 1 2 2 5 5 5 4 5 5 5 5 6 5 4 3 6 4 5 4 5 5 3 3 3 4 3 2 1 2 2 2 1 2 2 2 1 1 3 1 2 2 1 2 2 1 1 1 1 2 0 0 1 3 1 6
6 8 8 8 8 8 8 9 9 8 7 8 8 8 10 10 9 8 2 2 3 3 3 3 5 5 5 5 4 4 5 4 5 4 5 3 4 5 4 5 4 4 4 4 4 6 5 2 2 2 3 2 0 1 1 1 4 3 0 0 1 0 1 0 1 1 2 0 0 2 3 4 3 3
9 8 8 7 7 7 8 8 7 7 7 7 7 6 6 7 8 7 6 2 2 4 4 6 4 4 4 4 5 6 4 5 4 5 5 5 6 5 5 5 5 5 4 4 4 5 5 5 5 4 2 2 2 3 1 1 4 3 1 1 1 0 2 1 1 0 0 1 1 0 2 3 5 4
8 7 7 7 6 6 7 7 6 7 7 6 6 6 7 7 6 6 6 4 4 4 5 5 4 5 5 4 4 4 4 4 5 5 5 5 5 4 4 4 4 5 4 4 5 4 4 4 4 4 3 3 2 3 3 6 2 2 3 1 2 2 2 2 1 0 1 2 0 1 2 3 5 5
8 7 7 7 6 6 6 6 6 6 6 6 6 5 5 6 6 6 4 1 6 5 4 5 4 4 5 5 5 4 3 4 4 4 4 3 4 4 3 3 3 3 4 4 3 4 3 5 5 4 4 4 1 2 4 2 2 1 2 1 2 2 2 2 1 3 3 1 3 2 4 3 4 5
8 7 8 7 7 6 6 6 6 6 6 6 6 6 5 5 5 5 4 5 5 5 5 5 4 4 4 3 5 5 4 4 4 4 3 3 3 3 3 3 4 5 5 5 5 6 4 4 5 4 2 4 5 2 1 2 2 2 2 1 1 5 1 1 1 1 3 2 2 4 1 2 5 6
7 8 7 7 7 6 7 7 6 7 6 6 6 5 5 5 6 6 6 5 4 5 5 5 5 4 4 4 4 4 4 4 4 3 4 4 3 2 3 3 4 4 5 6 7 7 6 5 6 5 5 5 5 4 3 2 2 4 5 4 3 3 3 2 1 2 2 4 5 3 2 4 5 5
7 7 6 7 7 6 7 7 7 6 7 6 6 6 6 6 5 6 6 5 5 5 5 5 5 5 5 5 5 4 4 4 3 2 3 4 4 4 3 2 2 3 3 4 5 6 4 4 4 3 2 4 4 5 4 2 1 2 5 8 5 7 3 3 2 1 4 5 2 3 5 5 5 5
7 7 6 6 6 7 7 6 6 6 6 6 6 5 5 4 6 5 5 4 4 5 5 5 5 4 4 4 4 4 5 4 3 4 4 3 3 3 3 3 4 3 2 5 4 5 6 3 2 2 2 2 1 1 2 3 4 6 6 7 7 4 6 6 4 3 4 2 0 3 5 5 4 3
7 7 6 6 6 6 6 6 6 6 6 6 6 5 5 5 5 6 6 5 5 5 5 5 4 4 4 4 4 4 5 5 5 5 4 4 4 5 5 2 4 4 3 5 4 4 4 0 2 4 4 2 2 5 2 1 2 4 4 5 6 6 4 6 6 4 3 3 3 4 3 3 1 3
7 6 5 5 5 5 5 5 5 5 5 5 5 5 5 5 5 6 6 6 5 5 5 5 4 4 4 5 4 4 5 5 4 4 4 4 4 4 5 5 4 4 3 3 3 2 4 4 4 5 5 5 2 0 1 2 2 3 4 5 6 6 6 5 7 9 9 8 7 7 5 4 1 2
5 5 5 4 5 5 5 5 5 5 5 5 5 5 5 5 5 5 4 4 4 4 4 4 4 4 4 3 4 4 4 4 4 3 4 4 5 5 5 5 5 5 3 1 2 2 2 1 1 2 3 2 1 2 2 2 5 3 5 4 4 4 5 5 5 4 4 7 10 13 13 12 11 9
4 4 4 4 4 4 5 5 5 5 5 5 6 6 5 5 5 5 5 4 3 2 3 2 2 1 1 1 3 3 1 2 2 2 2 3 4 6 6 4 2 3 5 4 4 5 4 4 3 2 3 3 1 0 1 1 2 3 4 4 6 5 5 4 4 5 5 6 7 9 11 12 13 12
Wind_Direction
152 137 146 151 169 193 165 174 157 153 149 152 158 163 159 157 140 151 152 181 152 196 165 143 169 142 131 127 132 125 123 125 118 110 112 119 124 129 127 127 127 127 130 133 133 132 132 132 131 127 118 116 113 107 110 108 104 104 100 99 94 92 92 92 93 97 97 95 91 89 84 72 58 47
157 136 142 145 167 196 164 188 181 165 165 159 172 167 149 153 152 154 156 180 193 165 184 148 138 145 139 135 135 134 133 138 123 122 123 126 138 139 134 135 136 136 138 140 141 144 144 142 139 133 125 124 125 126 126 126 133 123 116 114 120 119 110 104 152 132 125 125 111 86 74 62 46 34
145 144 161 171 168 168 173 191 161 168 155 173 177 181 151 161 156 155 152 150 226 175 156 141 143 148 155 154 145 139 140 143 130 128 130 137 148 142 142 144 146 146 147 149 151 151 151 150 145 143 136 135 139 145 142 143 142 126 118 107 116 126 117 111 112 123 110 96 86 74 62 52 39 29
142 147 154 167 154 167 164 182 130 136 159 166 172 173 159 162 161 153 154 154 177 194 157 153 156 154 154 159 148 147 147 140 140 134 138 145 145 138 148 154 155 157 157 160 160 159 153 154 151 148 153 153 155 145 130 128 123 122 124 126 122 118 110 96 93 110 99 90 82 72 60 45 33 19
125 118 115 143 161 150 152 187 177 171 178 152 156 176 163 157 155 144 135 143 140 75 149 146 159 162 150 157 161 150 146 137 137 126 140 153 152 155 160 165 171 168 169 169 170 162 160 161 161 158 160 155 146 139 140 138 140 136 131 130 122 113 108 96 88 94 100 94 84 74 56 41 29 14
122 125 123 94 141 151 149 179 182 205 210 228 149 174 173 171 162 152 118 140 138 150 159 149 150 159 167 148 173 154 152 153 139 142 155 176 177 167 169 164 189 193 182 182 182 173 173 174 167 161 161 157 158 160 157 155 148 141 140 136 134 128 118 111 107 107 102 92 83 68 51 37 21 11
130 125 132 161 164 143 155 151 274 160 119 229 130 158 152 130 142 153 139 136 140 151 176 165 155 169 170 163 175 174 162 156 155 154 173 176 184 178 179 184 189 202 201 196 193 187 185 184 173 172 172 171 174 172 168 162 150 146 142 135 127 120 118 111 101 98 105 103 87 67 50 29 13 14
131 142 141 174 155 136 135 215 296 119 41 95 134 111 110 113 126 146 144 146 139 153 149 189 169 173 156 184 165 161 152 154 163 172 173 180 188 180 188 195 199 200 205 206 201 196 194 191 185 182 181 182 183 181 175 164 156 151 147 140 136 133 129 120 109 96 80 79 79 76 59 21 11 10
133 137 149 161 139 132 125 298 14 30 55 68 129 125 134 122 119 111 110 120 140 145 160 173 194 163 163 164 163 162 154 160 161 165 175 185 194 188 195 202 211 207 207 210 211 210 206 202 197 191 188 188 188 185 178 173 166 160 154 148 143 139 133 127 125 116 104 87 70 74 66 16 356 2
134 133 141 155 127 111 146 76 25 36 62 56 45 49 75 120 106 96 111 120 123 145 158 160 173 189 145 152 172 179 166 160 168 177 193 197 196 187 193 212 210 205 193 199 217 221 220 216 208 201 197 195 193 187 181 177 173 166 158 152 147 143 142 142 132 123 116 109 106 62 25 354 348 352
126 120 111 83 69 77 83 75 70 72 63 65 54 44 46 48 89 100 124 141 149 165 162 143 175 188 195 158 173 194 176 175 172 173 173 203 213 209 196 210 216 198 201 215 212 211 206 204 200 205 205 203 198 190 184 181 174 166 161 157 153 152 153 141 131 130 134 153 174 191 207 263 338 343
80 80 78 78 77 80 73 86 70 81 87 82 64 36 59 66 69 52 60 62 111 137 169 175 190 200 186 173 185 168 162 163 195 194 178 188 200 214 210 207 204 209 195 210 217 231 240 247 227 218 213 210 203 197 189 183 172 170 166 162 160 162 150 142 142 151 171 183 189 196 210 262 295 319
65 55 57 56 61 71 67 62 67 60 77 102 91 46 72 73 73 75 70 88 91 94 107 99 95 170 233 195 149 172 177 189 194 192 184 200 200 201 202 223 215 195 194 209 203 211 205 209 215 199 207 217 206 203 189 185 182 176 171 167 168 161 151 153 162 175 183 190 193 197 225 255 269 272
76 78 83 81 70 61 51 35 30 52 63 72 97 125 108 98 91 90 84 73 88 95 89 131 131 109 163 191 138 176 224 251 270 166 190 200 210 185 213 233 232 204 194 188 207 220 198 200 208 195 212 207 191 195 190 195 183 183 177 173 169 162 157 164 177 184 188 192 196 208 219 238 249 259
86 81 75 59 46 30 54 74 64 31 21 13 33 85 90 102 125 113 93 101 105 104 76 167 133 144 171 307 246 189 182 183 188 211 201 212 191 188 187 216 249 195 185 201 209 223 202 186 206 209 212 196 191 193 202 191 184 181 179 176 170 163 163 175 185 188 192 194 203 203 212 228 254 274
67 62 56 47 64 70 359 27 64 82 80 63 358 338 11 77 69 118 140 143 91 125 124 84 233 140 142 210 252 268 236 208 186 194 201 214 200 208 209 214 208 211 179 191 200 227 199 191 210 212 217 200 195 200 193 188 185 181 179 176 171 166 169 184 192 195 200 201 201 198 204 235 266 288
92 98 96 92 89 161 77 56 35 45 23 34 45 4 319 303 218 232 287 7 145 163 140 185 251 214 199 201 229 215 209 183 214 206 212 211 218 211 230 229 243 268 183 177 202 230 217 188 206 220 230 193 220 213 192 187 185 182 178 174 170 167 176 191 199 205 207 202 197 188 197 223 294 313
98 103 113 125 124 111 89 91 95 56 65 56 47 47 337 305 285 233 238 233 274 221 180 170 207 238 177 219 227 241 191 168 211 214 246 255 244 212 221 225 213 206 166 186 194 228 210 193 202 250 329 202 236 230 205 189 183 179 175 171 169 171 187 200 208 213 210 199 192 180 164 337 323 319
112 121 131 154 144 62 79 87 187 159 99 124 155 12 294 278 283 354 126 161 185 201 214 208 217 221 216 218 214 230 208 208 215 196 204 209 213 221 148 96 29 32 342 198 169 220 336 111 144 166 193 196 190 165 205 194 178 173 176 175 174 177 197 206 215 218 208 193 176 164 152 282 303 310
93 116 135 143 103 49 63 15 18 8 326 112 73 24 308 308 323 25 291 276 300 267 198 205 203 189 207 246 250 269 278 272 247 102 96 78 86 84 32 208 333 107 311 113 164 162 192 205 135 182 251 136 143 36 119 178 176 177 176 180 178 189 202 211 220 220 204 178 168 170 187 226 258 290
48 31 28 34 43 60 51 3 28 18 330 66 101 50 299 280 305 2 322 349 14 356 331 165 172 178 195 229 265 286 267 235 198 176 201 222 153 145 188 226 196 216 186 141 142 136 166 206 120 166 348 113 131 92 70 127 171 176 178 186 188 198 207 216 220 219 201 175 171 186 207 226 246 279
62 45 41 37 42 50 32 6 23 17 22 68 88 151 232 318 327 320 292 7 335 347 331 318 274 237 226 218 199 182 0 31 141 163 212 215 155 202 199 222 214 244 189 195 151 118 182 172 174 134 165 70 76 146 165 171 187 186 182 188 196 205 213 219 216 219 200 180 180 189 203 231 241 256
74 58 52 52 56 68 73 42 31 27 43 79 50 6 310 282 296 323 331 287 256 254 265 276 262 273 261 250 231 195 221 70 80 127 159 165 155 187 197 185 130 330 317 310 338 170 197 140 239 128 99 253 273 114 147 160 164 176 187 203 211 223 226 226 219 223 198 182 183 186 201 229 218 193
54 42 30 26 22 31 44 52 46 36 26 44 37 25 46 14 348 345 330 325 299 261 229 248 219 228 227 226 224 210 92 62 75 106 163 192 166 165 197 189 167 195 232 316 3 157 223 184 190 209 184 145 212 199 101 160 185 190 191 198 214 233 235 240 245 238 191 192 193 193 205 228 218 180
53 33 23 10 9 11 19 37 53 57 40 22 24 41 39 9 295 308 335 321 331 312 284 261 245 248 239 230 243 177 93 92 100 88 88 103 156 171 173 167 185 112 260 254 257 167 113 182 224 54 40 70 93 109 189 175 190 198 200 201 217 235 222 233 225 210 181 194 209 210 215 228 236 180
51 37 22 10 353 0 7 11 26 43 42 45 72 70 226 284 338 339 290 289 300 305 304 296 286 280 252 237 259 69 117 136 115 107 99 88 87 108 179 173 161 149 173 292 149 137 113 26 25 67 22 79 19 75 111 141 154 213 214 228 248 285 231 224 180 186 197 181 198 204 221 231 247 225
62 86 17 359 356 353 359 3 12 28 34 83 100 274 315 314 317 316 318 312 311 313 313 315 307 302 296 293 286 113 158 168 147 139 127 120 109 92 75 83 110 123 150 98 65 98 100 85 7 94 82 84 83 18 67 78 103 66 87 155 217 268 246 171 189 227 117 143 214 227 235 261 255 260
21 5 358 330 318 337 357 355 0 54 62 49 343 337 335 331 319 303 322 337 325 319 326 325 309 303 322 353 357 70 9 24 16 25 27 24 38 72 81 82 87 88 92 79 69 81 105 114 87 76 103 91 85 77 43 351 8 18 20 291 70 32 46 74 63 49 43 66 62 86 113 263 265 255
13 351 336 328 326 326 339 354 4 152 171 113 351 334 335 339 2 7 22 28 27 29 14 352 341 14 14 16 49 78 79 58 38 31 26 31 32 24 34 43 41 35 39 43 66 73 74 98 107 90 70 65 83 84 107 233 43 13 33 27 8 334 40 68 98 116 124 134 146 158 170 183 199 203
354 351 341 331 328 322 326 348 344 338 342 344 350 352 0 0 6 21 40 33 43 29 13 24 32 15 10 12 30 51 60 62 41 49 57 58 41 41 48 50 30 27 32 24 28 63 80 84 100 101 102 119 136 160 167 120 68 239 78 91 262 306 33 88 118 130 125 127 152 158 209 193 194 154
353 337 338 321 315 311 315 326 320 344 343 355 2 359 349 330 313 354 80 72 78 73 52 50 52 21 18 20 33 31 55 56 28 40 79 76 55 51 41 69 39 20 2 12 5 20 40 84 85 99 113 140 105 137 162 129 162 206 326 91 78 103 266 43 124 144 151 168 173 327 329 325 331 105
333 334 331 348 0 5 7 2 355 354 351 346 342 337 329 328 328 329 349 29 86 87 104 94 64 26 31 47 40 48 53 54 43 51 72 87 72 75 100 69 50 353 327 320 341 17 47 63 100 104 124 149 152 235 108 113 135 261 296 294 290 260 231 184 175 204 202 149 89 2 274 275 38 117
334 7 28 33 35 40 38 32 26 19 15 8 0 357 342 337 351 345 25 60 85 131 89 86 95 84 67 51 51 64 61 42 45 32 80 55 87 57 69 92 73 15 359 346 343 343 52 57 85 113 149 187 175 157 149 332 305 220 224 305 17 308 301 313 166 184 142 55 33 264 320 307 183 168
39 45 52 42 41 37 40 38 34 25 23 18 16 12 17 19 11 1 8 96 80 63 96 113 98 100 102 94 79 77 78 61 49 35 66 55 55 72 60 64 39 24 24 10 0 356 352 8 3 354 9 0 334 174 159 185 261 267 168 342 301 285 286 201 22 105 117 163 246 333 327 307 286 196
51 52 53 41 38 37 45 47 36 33 34 25 24 16 11 23 9 357 10 2 90 88 83 64 77 93 97 105 94 91 78 76 50 43 38 60 54 63 52 51 34 22 15 11 353 350 7 10 19 12 359 5 5 326 347 191 230 285 79 7 247 209 277 248 168 217 110 1 115 166 268 291 304 269
53 56 61 53 46 41 47 38 35 35 34 28 24 13 19 8 6 4 0 345 53 63 78 87 78 79 87 101 97 89 79 74 61 54 50 47 51 51 55 50 37 15 6 8 342 340 355 3 33 38 10 350 36 3 316 360 39 148 114 283 294 276 263 271 251 87 38 349 337 47 292 271 272 280
59 49 52 49 44 46 49 42 42 34 33 30 24 21 19 8 349 354 345 8 66 60 79 88 86 93 97 95 89 88 84 83 78 62 64 60 64 55 58 25 23 7 7 339 330 331 2 358 355 22 16 354 341 267 269 302 284 224 128 124 272 251 282 307 10 348 317 269 297 270 243 232 261 270
58 48 45 36 35 32 36 36 35 32 26 25 18 13 12 359 350 353 353 31 50 65 64 76 80 80 81 89 101 96 82 73 77 71 56 51 63 45 50 32 3 4 354 337 341 326 330 331 311 290 246 249 261 278 295 315 353 310 267 124 243 273 296 333 350 346 311 307 241 269 265 282 267 261
60 57 48 43 31 31 29 24 29 22 11 10 13 15 8 4 8 10 21 31 37 55 60 62 59 66 72 63 63 82 88 81 68 58 57 43 53 45 20 28 6 343 2 345 335 321 312 293 275 254 185 177 181 192 182 180 271 267 309 286 222 258 254 162 212 246 262 293 302 306 281 246 266 290
58 59 54 47 34 28 25 22 20 14 12 359 357 11 27 25 20 24 25 33 51 55 64 67 74 76 71 76 86 78 73 75 77 61 38 17 358 9 359 0 340 319 338 315 297 290 285 253 213 220 163 168 185 190 169 171 252 311 327 320 258 222 222 170 200 226 283 253 245 359 315 340 339 321
54 54 45 45 38 29 28 20 17 12 10 5 10 26 43 41 39 31 34 40 58 65 67 66 71 75 75 66 60 75 71 52 43 32 20 0 341 333 332 351 332 287 267 287 289 307 320 298 292 350 58 87 20 33 29 22 350 319 317 299 316 292 224 202 195 179 232 226 82 273 274 280 273 319
60 53 42 37 39 27 29 27 19 19 11 13 24 36 45 43 44 39 42 38 50 56 66 65 64 72 69 63 58 55 61 40 26 14 8 16 3 349 336 309 280 291 296 293 303 296 273 258 71 51 31 31 34 50 10 291 290 296 289 305 306 308 272 260 268 263 227 217 232 270 292 325 22 321
63 59 51 39 32 33 28 28 28 26 20 17 20 24 47 51 45 41 32 32 28 40 44 47 44 57 60 53 50 46 45 26 15 6 349 328 312 300 302 299 277 281 254 257 274 296 358 19 31 55 36 56 12 110 1 286 281 282 298 309 304 315 318 288 253 255 256 246 229 224 209 205 179 271
81 71 67 55 53 41 34 31 31 27 29 25 22 30 41 52 52 52 50 45 50 56 56 65 66 78 82 75 60 59 63 49 25 5 335 326 318 294 281 286 283 278 283 67 82 9 330 348 17 106 80 22 330 60 7 8 357 317 295 288 294 324 315 317 320 311 288 257 239 236 236 227 222 232
91 87 76 61 53 47 50 46 40 35 34 31 38 39 37 39 36 37 35 32 41 43 49 59 62 43 52 62 83 78 78 91 70 11 294 289 302 296 298 296 340 20 34 15 54 27 13 11 333 7 57 23 27 204 307 14 296 295 303 321 324 326 319 312 311 308 309 315 280 247 240 236 235 238